Weather History for Southern Pines, NC

Change the Weather History Date:

Monday, February 18, 2013

  Actual Average Record
Temperature  
Mean Temperature 33 °F -  
Max Temperature 51 °F 54 °F 77 °F (2011)
Min Temperature 15 °F 33 °F 15 °F (2013)
Degree Days  
Heating Degree Days 32    
Moisture  
Dew Point 17 °F    
Average Humidity 52    
Maximum Humidity 100    
Minimum Humidity 22    
Precipitation  
Precipitation 0.00 in - - ()
Sea Level Pressure  
Sea Level Pressure 30.33 in    
Wind  
Wind Speed 2 mph (South)    
Max Wind Speed 10 mph    
Max Gust Speed 16 mph    
Visibility 10 miles    
Events      
Averages and records for this station are not official NWS values.
T = Trace of Precipitation, MM = Missing Value Source: NWS Daily Summary

Daily Weather History Graph

Daily Weather History Graph

Search for Another Location

Airport:

Trip Planner

Search our weather history database for the weather conditions in past years. The results will help you decide how hot, cold, wet, or windy it might be!

Date:

Astronomy

Feb. 18, 2013 Rise Set
Actual Time 7:00 AM EST 6:03 PM EST
Civil Twilight 6:34 AM EST 6:28 PM EST
Nautical Twilight 6:04 AM EST 6:58 PM EST
Astronomical Twilight 5:35 AM EST 7:28 PM EST
Moon 11:54 AM EST (2/18) 1:32 AM EST (2/18)
Length of Visible Light 11h 54m
Length of Day
11h 02m
First Quarter, 58% of the Moon is Illuminated
Feb 18
First Quarter
Feb 25
Full
Mar 4
Last Quarter
Mar 11
New
Mar 19
First Quarter

Hourly Weather History & Observations

Time (EST) Temp. Windchill Dew Point Humidity Pressure Visibility Wind Dir Wind Speed Gust Speed Precip Events Conditions
12:15 AM 23.0 °F - 12.2 °F 63% 30.28 in 10.0 mi Calm Calm - N/A   Clear
12:35 AM 19.4 °F - 10.4 °F 68% 30.28 in 10.0 mi Calm Calm - N/A   Clear
12:55 AM 21.2 °F - 12.2 °F 68% 30.28 in 10.0 mi Calm Calm - N/A   Clear
1:15 AM 23.0 °F - 15.8 °F 74% 30.29 in 10.0 mi Calm Calm - N/A   Clear
1:35 AM 21.2 °F - 12.2 °F 68% 30.29 in 10.0 mi Calm Calm - N/A   Clear
1:55 AM 21.2 °F - 14.0 °F 74% 30.29 in 10.0 mi Calm Calm - N/A   Clear
2:15 AM 19.4 °F - 10.4 °F 68% 30.30 in 10.0 mi Calm Calm - N/A   Clear
2:35 AM 19.4 °F - 12.2 °F 74% 30.30 in 10.0 mi Calm Calm - N/A   Clear
2:55 AM 19.4 °F - 12.2 °F 74% 30.30 in 10.0 mi Calm Calm - N/A   Clear
3:15 AM 19.4 °F - 14.0 °F 80% 30.31 in 10.0 mi Calm Calm - N/A   Clear
3:35 AM 17.6 °F - 14.0 °F 86% 30.31 in 10.0 mi Calm Calm - N/A   Clear
4:15 AM 17.6 °F - 12.2 °F 79% 30.31 in 10.0 mi Calm Calm - N/A   Clear
4:35 AM 17.6 °F - 15.8 °F 93% 30.31 in 10.0 mi Calm Calm - N/A   Clear
4:55 AM 17.6 °F - 17.6 °F 100% 30.32 in 10.0 mi Calm Calm - N/A   Clear
5:15 AM 17.6 °F - 15.8 °F 93% 30.34 in 10.0 mi Calm Calm - N/A   Clear
5:35 AM 15.8 °F - 14.0 °F 93% 30.34 in 10.0 mi Calm Calm - N/A   Clear
5:55 AM 15.8 °F - 12.2 °F 86% 30.34 in 10.0 mi Calm Calm - N/A   Clear
6:15 AM 17.6 °F - 12.2 °F 79% 30.35 in 10.0 mi Calm Calm - N/A   Clear
6:35 AM 15.8 °F - 12.2 °F 86% 30.35 in 10.0 mi Calm Calm - N/A   Clear
6:55 AM 17.6 °F - 14.0 °F 86% 30.36 in 10.0 mi Calm Calm - N/A   Clear
7:15 AM 15.8 °F - 14.0 °F 93% 30.36 in 10.0 mi Calm Calm - N/A   Clear
7:35 AM 17.6 °F - 15.8 °F 93% 30.37 in 10.0 mi Calm Calm - N/A   Clear
7:55 AM 21.2 °F - 17.6 °F 86% 30.38 in 10.0 mi Calm Calm - N/A   Clear
8:15 AM 24.8 °F - 19.4 °F 80% 30.39 in 10.0 mi Calm Calm - N/A   Clear
8:35 AM 26.6 °F - 19.4 °F 74% 30.40 in 10.0 mi Calm Calm - N/A   Clear
8:55 AM 30.2 °F - 19.4 °F 64% 30.40 in 10.0 mi Calm Calm - N/A   Clear
9:15 AM 33.8 °F 29.6 °F 19.4 °F 56% 30.40 in 10.0 mi SE 4.6 mph - N/A   Clear
9:35 AM 35.6 °F - 19.4 °F 52% 30.40 in 10.0 mi Calm Calm - N/A   Clear
9:55 AM 37.4 °F 34.9 °F 17.6 °F 45% 30.40 in 10.0 mi ESE 3.5 mph - N/A   Clear
10:15 AM 39.2 °F 35.9 °F 15.8 °F 39% 30.40 in 10.0 mi SSE 4.6 mph - N/A   Clear
10:35 AM 41.0 °F 37.1 °F 15.8 °F 36% 30.40 in 10.0 mi ESE 5.8 mph - N/A   Clear
10:55 AM 42.8 °F - 15.8 °F 34% 30.40 in 10.0 mi Calm Calm - N/A   Clear
11:15 AM 44.6 °F 41.4 °F 15.8 °F 31% 30.40 in 10.0 mi SE 5.8 mph - N/A   Clear
11:35 AM 46.4 °F 45.2 °F 15.8 °F 29% 30.40 in 10.0 mi SW 3.5 mph - N/A   Clear
11:55 AM 46.4 °F 43.5 °F 14.0 °F 27% 30.40 in 10.0 mi WSW 5.8 mph - N/A   Clear
12:15 PM 48.2 °F - 12.2 °F 24% 30.39 in 10.0 mi WSW 4.6 mph - N/A   Clear
12:35 PM 48.2 °F - 14.0 °F 25% 30.37 in 10.0 mi Calm Calm - N/A   Clear
12:55 PM 48.2 °F - 14.0 °F 25% 30.36 in 10.0 mi SSE 8.1 mph - N/A   Clear
1:15 PM 50.0 °F - 15.8 °F 26% 30.34 in 10.0 mi Calm Calm - N/A   Clear
1:35 PM 50.0 °F - 12.2 °F 22% 30.33 in 10.0 mi South 8.1 mph - N/A   Clear
1:55 PM 51.8 °F - 14.0 °F 22% 30.33 in 10.0 mi SSW 10.4 mph - N/A   Clear
2:15 PM 51.8 °F - 15.8 °F 24% 30.32 in 10.0 mi SSE 3.5 mph - N/A   Clear
2:35 PM 51.8 °F - 15.8 °F 24% 30.32 in 10.0 mi SSW 8.1 mph - N/A   Clear
2:55 PM 51.8 °F - 15.8 °F 24% 30.32 in 10.0 mi South 4.6 mph - N/A   Clear
3:15 PM 51.8 °F - 15.8 °F 24% 30.31 in 10.0 mi South 6.9 mph - N/A   Clear
3:35 PM 51.8 °F - 17.6 °F 26% 30.31 in 10.0 mi South 6.9 mph - N/A   Clear
3:55 PM 51.8 °F - 15.8 °F 24% 30.31 in 10.0 mi SW 9.2 mph - N/A   Clear
4:15 PM 51.8 °F - 17.6 °F 26% 30.31 in 10.0 mi South 10.4 mph - N/A   Clear
4:35 PM 51.8 °F - 15.8 °F 24% 30.30 in 10.0 mi SSW 10.4 mph - N/A   Clear
4:55 PM 51.8 °F - 17.6 °F 26% 30.30 in 10.0 mi South 6.9 mph - N/A   Clear
5:15 PM 50.0 °F - 17.6 °F 28% 30.29 in 10.0 mi South 9.2 mph - N/A   Clear
5:35 PM 48.2 °F - 17.6 °F 30% 30.30 in 10.0 mi South 8.1 mph - N/A   Clear
5:55 PM 48.2 °F - 17.6 °F 30% 30.30 in 10.0 mi South 6.9 mph - N/A   Clear
6:15 PM 46.4 °F 42.9 °F 17.6 °F 32% 30.31 in 10.0 mi South 6.9 mph - N/A   Clear
6:35 PM 44.6 °F 42.2 °F 19.4 °F 37% 30.31 in 10.0 mi South 4.6 mph - N/A   Clear
6:55 PM 44.6 °F 43.1 °F 19.4 °F 37% 30.31 in 10.0 mi South 3.5 mph - N/A   Clear
7:15 PM 42.8 °F 40.1 °F 19.4 °F 39% 30.31 in 10.0 mi South 4.6 mph - N/A   Clear
7:35 PM 42.8 °F 40.1 °F 19.4 °F 39% 30.30 in 10.0 mi South 4.6 mph - N/A   Clear
7:55 PM 41.0 °F 37.1 °F 19.4 °F 42% 30.30 in 10.0 mi South 5.8 mph - N/A   Clear
8:15 PM 42.8 °F 37.0 °F 21.2 °F 42% 30.30 in 10.0 mi South 10.4 mph - N/A   Clear
8:35 PM 42.8 °F 38.0 °F 21.2 °F 42% 30.30 in 10.0 mi South 8.1 mph - N/A   Clear
8:55 PM 42.8 °F 37.5 °F 21.2 °F 42% 30.30 in 10.0 mi South 9.2 mph 16.1 mph N/A   Clear
9:15 PM 42.8 °F 37.0 °F 21.2 °F 42% 30.30 in 10.0 mi South 10.4 mph - N/A   Clear
9:35 PM 41.0 °F 34.7 °F 21.2 °F 45% 30.29 in 10.0 mi South 10.4 mph - N/A   Clear
9:55 PM 41.0 °F 35.2 °F 21.2 °F 45% 30.29 in 10.0 mi South 9.2 mph - N/A   Clear
10:15 PM 41.0 °F 35.2 °F 23.0 °F 49% 30.29 in 10.0 mi SSW 9.2 mph 16.1 mph N/A   Clear
10:35 PM 39.2 °F 33.0 °F 23.0 °F 52% 30.28 in 10.0 mi SSW 9.2 mph - N/A   Clear
10:55 PM 39.2 °F 33.6 °F 23.0 °F 52% 30.28 in 10.0 mi SSW 8.1 mph - N/A   Clear
11:15 PM 39.2 °F 34.2 °F 23.0 °F 52% 30.29 in 10.0 mi SSW 6.9 mph - N/A   Clear
11:35 PM 37.4 °F 32.1 °F 23.0 °F 56% 30.27 in 10.0 mi SSW 6.9 mph - N/A   Clear
11:55 PM 37.4 °F 31.4 °F 23.0 °F 56% 30.26 in 10.0 mi South 8.1 mph - N/A   Clear